Location: Góry Miechowskie
(50.3599°N, 20.1803°E)
Time: 14:56:20
(UTC+00:00)

A-11 Canister half - Pass Details

Date: 16 September 2024
Orbit: 1515 x 1684 km, 47.2° (Epoch: 07 October)

Event Time Altitude Azimuth Distance (km) Brightness Sun altitude
Rises 18:04:27 0° 242° (WSW) 4,723 12.2 -12.4°
Reaches altitude 10° 18:07:34 10° 239° (WSW) 3,722 11.6 -12.9°
Maximum altitude 18:16:44 64° 161° (SSE) 1,665 9.0 -14.3°
Enters shadow 18:24:36 15° 85° (E) 3,300 10.2 -15.4°
Drops below altitude 10° 18:25:48 10° 84° (E) 3,678 - -15.6°
Sets 18:28:51 0° 81° (E) 4,665 - -16.1°
